Kuchera_Ratio
0.0 0.0 0.0 0.0 0.0 0.0 0.0 0.0 0.0 0.0 0.0 0.0 0.0 0.0 0.0 0.0 0.0 0.0 0.0 0.0 0.0 0.0 0.0 0.0 0.0 0.0 0.0
0.0 0.0 0.0 0.0 0.0 0.0 0.0 0.0 0.0 0.0 0.0 0.0 0.0 0.0 0.0 0.0 0.0 0.0 0.0 0.0 0.0 0.0 0.0 0.0 0.0 0.0 0.0
0.0 0.0 0.0 0.1 0.5 0.0 0.0 0.0 0.0 0.0 0.0 0.0 0.0 0.0 0.0 0.0 0.0 0.0 0.0 0.0 0.0 0.0 0.0 0.0 0.0 0.0 0.0
0.0 0.0 0.0 1.2 2.3 3.7 3.9 3.3 3.5 0.0 0.0 0.0 0.0 0.0 0.0 0.0 0.0 0.0 0.0 0.0 0.0 0.0 0.0 0.0 0.0 0.0 0.0
0.0 0.6 2.0 2.7 3.2 4.4 5.6 6.0 4.8 1.4 3.1 2.5 2.6 2.6 2.2 0.0 0.0 0.0 0.0 0.0 0.0 0.0 0.0 0.0 0.0 0.0 0.0
0.0 0.9 2.8 5.4 5.3 5.9 6.1 8.2 9.7 2.9 6.8 6.9 1.4 4.2 2.4 2.5 0.0 0.0 0.0 0.0 0.0 0.0 0.0 0.0 0.0 0.0 0.0
0.0 2.9 4.6 5.0 4.7 5.7 5.6 6.1 7.6 6.5 5.9 7.6 4.2 7.4 2.4 0.0 0.0 0.0 0.0 0.0 0.0 0.0 0.0 0.0 0.0 0.0 0.0
2.1 2.9 2.8 1.6 1.8 1.8 4.9 6.5 6.9 5.4 4.7 9.6 6.9 8.2 4.3 3.5 0.0 0.0 0.0 0.0 0.0 0.0 0.0 0.0 0.0 0.0 0.0
0.0 0.0 0.0 0.0 0.1 4.4 7.2 8.8 10.9 10.0 6.6 9.7 9.9 9.3 7.4 6.5 5.9 0.0 0.0 0.0 0.0 0.0 0.0 0.0 0.0 0.4 7.9
2.8 0.3 0.9 0.0 0.0 4.5 5.9 8.9 9.3 12.0 7.9 11.2 10.5 10.8 13.3 8.6 7.1 6.7 7.0 1.5 0.0 0.2 0.3 0.5 0.7 8.4 10.5
9.0 8.8 8.9 8.6 7.7 6.0 5.7 6.3 10.1 11.8 7.4 9.3 13.3 13.3 13.7 13.0 10.4 9.2 9.9 9.7 10.1 8.9 4.2 3.2 2.4 3.8 10.6
10.3 10.8 11.0 10.7 9.9 9.1 7.9 8.6 8.9 8.2 7.8 8.5 13.8 13.3 14.6 15.6 15.2 12.0 12.1 12.0 12.2 12.2 12.0 7.6 4.9 3.9 3.8
12.5 12.4 10.5 9.9 9.5 10.5 10.2 10.2 10.8 9.8 8.2 9.9 12.1 12.9 15.3 16.0 15.9 15.6 14.2 13.4 12.6 13.4 13.5 13.1 13.1 12.7 13.6
12.3 11.2 10.6 11.4 12.2 12.1 13.7 13.5 14.4 14.5 10.9 11.5 12.3 13.4 16.4 16.2 16.2 16.7 15.7 17.5 14.3 14.0 13.7 13.4 13.3 12.9 12.9
12.2 12.4 12.2 12.5 12.6 12.7 13.6 14.5 15.6 15.9 16.0 14.5 13.4 13.5 14.4 16.5 18.1 16.8 16.7 16.5 15.1 14.9 14.5 15.0 13.9 13.5 13.5
12.6 12.9 13.4 13.6 14.1 14.1 14.9 15.5 15.8 16.1 16.2 16.3 16.6 17.7 18.2 15.9 13.3 17.2 16.7 16.8 15.7 15.0 14.8 17.0 16.3 14.4 13.7
13.0 13.3 13.7 13.9 13.2 15.0 15.3 15.5 16.0 16.3 16.4 16.4 16.6 17.5 19.4 19.2 16.5 8.5 16.7 16.4 16.9 17.2 16.0 16.9 17.4 15.5 14.3